TimeHST,TemperatureF,Dew PointF,Humidity,Sea Level PressureIn,VisibilityMPH,Wind Direction,Wind SpeedMPH,Gust SpeedMPH,PrecipitationIn,Events,Conditions,WindDirDegrees,DateUTC
12:13 AM,73.4,69.8,88,29.98,10.0,North,9.2,-,0.00,Rain,Light Rain,10,2013-04-30 10:13:00
12:53 AM,73.0,69.1,87,29.98,7.0,NNE,12.7,-,0.07,Rain,Heavy Rain,20,2013-04-30 10:53:00
1:20 AM,71.6,69.8,94,29.97,6.0,North,5.8,-,0.09,Rain,Rain,360,2013-04-30 11:20:00
1:45 AM,71.6,69.8,94,29.97,9.0,NNW,8.1,-,0.11,Rain,Light Rain,330,2013-04-30 11:45:00
1:53 AM,72.0,69.1,91,29.97,10.0,NNW,8.1,-,0.11,Rain,Light Rain,330,2013-04-30 11:53:00
2:53 AM,73.0,70.0,90,29.96,10.0,NNE,8.1,-,0.01,,Overcast,20,2013-04-30 12:53:00
3:53 AM,73.0,69.1,87,29.95,10.0,North,4.6,-,N/A,,Overcast,10,2013-04-30 13:53:00
4:53 AM,73.0,68.0,84,29.95,10.0,NNE,6.9,-,N/A,,Clear,30,2013-04-30 14:53:00
5:53 AM,72.0,64.9,78,29.96,10.0,North,-9999.0,-,N/A,,Clear,0,2013-04-30 15:53:00
6:53 AM,73.9,66.0,76,29.97,10.0,North,-9999.0,-,N/A,,Clear,0,2013-04-30 16:53:00
7:53 AM,77.0,68.0,74,29.98,10.0,North,-9999.0,-,N/A,,Clear,0,2013-04-30 17:53:00
8:53 AM,79.0,68.0,69,29.99,10.0,North,9.2,-,N/A,,Clear,360,2013-04-30 18:53:00
9:53 AM,80.1,68.0,67,30.00,10.0,North,-9999.0,-,N/A,,Clear,0,2013-04-30 19:53:00
10:53 AM,81.0,68.0,65,30.00,10.0,North,-9999.0,-,N/A,,Clear,0,2013-04-30 20:53:00
11:53 AM,82.0,69.1,65,29.99,10.0,NW,9.2,-,N/A,,Partly Cloudy,310,2013-04-30 21:53:00
12:53 PM,82.0,68.0,62,29.98,10.0,WNW,15.0,-,N/A,,Clear,290,2013-04-30 22:53:00
1:53 PM,82.0,66.9,60,29.96,10.0,North,-9999.0,-,N/A,,Partly Cloudy,0,2013-04-30 23:53:00
2:53 PM,82.0,66.9,60,29.95,10.0,North,-9999.0,-,N/A,,Clear,0,2013-05-01 00:53:00
3:53 PM,81.0,66.9,62,29.95,10.0,North,-9999.0,-,N/A,,Mostly Cloudy,0,2013-05-01 01:53:00
4:53 PM,81.0,68.0,65,29.94,10.0,North,-9999.0,-,N/A,,Clear,0,2013-05-01 02:53:00
5:53 PM,80.1,69.1,69,29.96,10.0,North,-9999.0,-,N/A,,Clear,0,2013-05-01 03:53:00
6:53 PM,78.1,68.0,71,29.97,10.0,SSW,11.5,-,N/A,,Mostly Cloudy,200,2013-05-01 04:53:00
7:06 PM,78.8,68.0,69,29.97,10.0,North,-9999.0,-,N/A,,Mostly Cloudy,0,2013-05-01 05:06:00
7:53 PM,78.1,68.0,71,29.99,10.0,North,-9999.0,-,N/A,,Overcast,0,2013-05-01 05:53:00
8:22 PM,77.0,68.0,74,29.99,10.0,North,-9999.0,-,0.00,,Mostly Cloudy,0,2013-05-01 06:22:00
8:53 PM,77.0,68.0,74,30.00,10.0,North,-9999.0,-,0.00,,Partly Cloudy,0,2013-05-01 06:53:00
9:53 PM,77.0,66.9,71,30.01,10.0,North,-9999.0,-,N/A,,Scattered Clouds,0,2013-05-01 07:53:00
10:53 PM,75.9,66.9,74,30.02,10.0,North,-9999.0,-,N/A,,Scattered Clouds,0,2013-05-01 08:53:00
11:53 PM,73.9,66.9,79,30.01,10.0,North,-9999.0,-,N/A,,Clear,0,2013-05-01 09:53:00